1512961200.12,28715,3.0,71584.5,-7.13,-12.93,-13.15,0,*53
1512961201.35,28716,3.0,71574.5,-7.11,-12.75,-13.07,0,*59
1512961202.59,28717,3.0,71550.8,-7.13,-12.61,-13.07,0,*5F
1512961203.8,28718,3.0,71562.3,-7.11,-12.47,-13.07,0,*56
1512961205.02,28719,3.0,71562.5,-7.11,-12.39,-13.01,0,*58
1512961206.23,28720,3.0,71572.0,-7.11,-12.47,-13.19,0,*52
1512961207.49,28721,3.0,71562.0,-7.11,-12.53,-13.33,0,*5E
1512961208.72,28722,3.0,71572.5,-7.11,-12.47,-13.29,0,*53
1512961209.99,28723,3.0,71594.5,-7.13,-12.61,-13.37,0,*5B
1512961211.24,28724,3.0,71610.8,-7.11,-12.79,-13.79,0,*5D
1512961212.49,28725,3.0,71604.5,-7.11,-13.37,-14.75,0,*5C
1512961213.7,28726,3.0,71586.0,-7.11,-14.61,-16.03,0,*58
1512961214.95,28727,3.0,71570.5,-7.13,-16.27,-18.07,0,*51
1512961216.18,28728,3.0,71574.8,-7.13,-17.83,-19.51,0,*53
1512961217.41,28729,3.0,71578.5,-7.13,-18.79,-20.05,0,*53
1512961218.67,28730,3.0,71574.0,-7.13,-19.41,-20.59,0,*58
1512961219.94,28731,3.0,71560.0,-7.11,-19.65,-20.49,0,*5C
1512961221.21,28732,3.0,71566.3,-7.13,-19.41,-20.35,0,*50
1512961222.45,28733,3.0,71572.5,-7.13,-19.71,-20.89,0,*55
1512961223.71,28734,3.0,71548.8,-7.11,-19.65,-20.79,0,*5A
1512961224.95,28735,3.0,71550.3,-7.13,-19.51,-20.73,0,*54
1512961226.22,28736,3.0,71552.3,-7.13,-19.41,-20.79,0,*5C
1512961227.46,28737,3.0,71562.5,-7.13,-19.13,-20.43,0,*53
1512961228.69,28738,3.0,71580.3,-7.13,-18.65,-19.71,0,*57
1512961229.97,28739,3.0,71576.3,-7.13,-17.59,-18.31,0,*53
1512961231.23,28740,3.0,71582.5,-7.13,-16.03,-16.13,0,*5D
1512961232.46,28741,3.0,71584.5,-7.09,-14.61,-15.49,0,*5D
1512961233.72,28742,3.0,71592.5,-7.13,-14.61,-16.23,0,*5A
1512961234.98,28743,3.0,71602.0,-7.11,-14.51,-16.27,0,*5E
1512961236.18,28744,3.0,71612.3,-7.11,-15.15,-16.93,0,*57
1512961237.41,28745,3.0,71610.5,-7.13,-14.89,-16.41,0,*5F
1512961238.61,28746,3.0,71596.3,-7.11,-14.61,-15.95,0,*52
1512961239.84,28747,3.0,71582.5,-7.11,-14.93,-15.67,0,*53
1512961241.08,28748,3.0,71584.5,-7.13,-14.65,-15.01,0,*57
1512961242.29,28749,3.0,71580.8,-7.11,-14.33,-14.33,0,*57
1512961243.52,28750,3.0,71584.3,-7.11,-14.23,-14.75,0,*5C
1512961244.76,28751,2.94,71560.5,-7.13,-14.37,-15.07,0,*5E
1512961246.0,28752,3.0,71558.3,-7.11,-14.23,-16.09,0,*57
1512961247.23,28753,3.0,71566.3,-7.13,-15.07,-17.87,0,*54
1512961248.5,28754,3.0,71568.3,-7.13,-16.23,-18.93,0,*5C
1512961249.71,28755,3.0,71528.5,-7.11,-16.79,-19.51,0,*5F
1512961250.98,28756,3.0,71466.3,-7.13,-17.55,-19.85,0,*58
1512961252.24,28757,3.0,71468.5,-7.11,-18.31,-18.93,0,*50
1512961253.5,28758,3.0,71460.0,-7.13,-17.45,-16.79,0,*5B
1512961254.76,28759,3.0,71448.8,-7.11,-15.81,-15.81,0,*56
1512961255.98,28760,3.0,71422.5,-7.13,-15.63,-16.93,0,*52
1512961257.21,28761,3.0,71378.5,-7.11,-15.67,-17.25,0,*59
1512961258.47,28762,3.0,71388.5,-7.11,-15.35,-16.69,0,*54
1512961259.72,28763,2.94,71416.8,-7.13,-15.81,-16.97,0,*59
1512961260.97,28764,3.0,71416.3,-7.13,-16.69,-17.69,0,*5B
1512961262.22,28765,3.0,71466.8,-7.13,-17.17,-18.79,0,*5C
1512961263.46,28766,3.0,71452.0,-7.13,-19.07,-19.95,0,*53
1512961264.71,28767,3.0,71478.5,-7.11,-19.65,-20.15,0,*56
1512961265.95,28768,3.0,71508.8,-7.13,-19.81,-19.99,0,*5F
1512961267.21,28769,3.0,71532.0,-7.13,-19.99,-20.15,0,*59
1512961268.41,28770,3.0,71554.3,-7.11,-19.99,-20.05,0,*52
1512961269.66,28771,3.0,71556.5,-7.13,-20.05,-20.15,0,*5F
1512961270.91,28772,3.0,71584.8,-7.13,-19.99,-19.85,0,*50
1512961272.18,28773,3.0,71578.0,-7.13,-19.81,-19.41,0,*50
1512961273.43,28774,3.0,71578.8,-7.13,-18.99,-18.93,0,*51
1512961274.64,28775,3.0,71574.8,-7.11,-18.99,-18.65,0,*5B
1512961275.9,28776,3.0,71550.8,-7.13,-18.65,-18.35,0,*5C
1512961277.14,28777,3.0,71572.0,-7.13,-18.35,-18.79,0,*50
1512961278.42,28778,3.0,71586.3,-7.13,-18.93,-18.89,0,*5C
1512961279.67,28779,3.0,71584.5,-7.13,-18.99,-19.23,0,*56
1512961280.88,28780,3.0,71598.3,-7.11,-19.37,-19.51,0,*52
1512961282.14,28781,3.0,71592.5,-7.13,-19.51,-19.65,0,*56
1512961283.39,28782,3.0,71540.5,-7.11,-19.41,-19.23,0,*54
1512961284.62,28783,3.0,71580.8,-7.13,-18.79,-18.73,0,*59
1512961285.88,28784,3.0,71572.5,-7.11,-17.41,-17.45,0,*52
1512961287.12,28785,3.0,71548.8,-7.11,-15.39,-15.95,0,*51
1512961288.35,28786,2.94,71548.8,-7.11,-13.87,-14.33,0,*5C
1512961289.55,28787,3.0,71554.5,-7.11,-12.47,-13.07,0,*50
1512961290.83,28788,3.0,71586.8,-7.09,-11.73,-12.83,0,*5F
1512961292.11,28789,3.0,71552.3,-7.09,-10.63,-11.77,0,*56
1512961293.36,28790,3.0,71528.0,-7.09,-10.31,-12.11,0,*5A
1512961294.58,28791,3.0,71506.5,-7.07,-10.19,-12.43,0,*58
1512961295.86,28792,3.0,71512.3,-7.09,-11.77,-15.21,0,*5F
1512961297.14,28793,3.0,71550.5,-7.09,-13.83,-16.65,0,*54
1512961298.36,28794,3.0,71554.3,-7.07,-15.15,-17.83,0,*5D
1512961299.61,28795,3.0,71588.8,-7.09,-16.23,-18.25,0,*57
1512961300.82,28796,3.0,71562.5,-7.07,-17.83,-19.17,0,*51
1512961302.05,28797,3.0,71566.5,-7.05,-19.03,-19.17,0,*54
1512961303.26,28798,3.0,71590.3,-7.07,-19.37,-19.51,0,*5C
1512961304.47,28799,3.0,71592.8,-7.07,-19.47,-19.47,0,*5D
1512961305.72,28800,3.0,71594.0,-7.05,-19.03,-19.31,0,*51
1512961306.95,28801,3.0,71570.8,-7.07,-18.89,-19.37,0,*57
1512961308.18,28802,3.0,71560.3,-7.07,-18.31,-18.83,0,*59
1512961309.44,28803,2.94,71594.3,-7.07,-17.55,-17.79,0,*5F
1512961310.67,28804,3.0,71578.0,-7.07,-16.17,-16.45,0,*51
1512961311.91,28805,3.0,71600.8,-7.07,-14.55,-14.89,0,*56
1512961313.14,28806,3.0,71588.8,-7.07,-12.89,-13.33,0,*54
1512961314.42,28807,3.0,71582.0,-7.05,-11.37,-11.67,0,*52
1512961315.63,28808,3.0,71566.0,-7.03,-10.01,-10.31,0,*5D
1512961316.86,28809,3.0,71556.3,-7.03,-9.23,-9.45,0,*5F
1512961318.07,28810,3.0,71554.5,-7.03,-8.75,-8.81,0,*5C
1512961319.26,28811,3.0,71550.5,-7.03,-8.63,-8.67,0,*52
1512961320.45,28812,3.0,71534.8,-7.03,-8.63,-8.67,0,*51
1512961321.64,28813,3.0,71534.5,-7.03,-8.41,-8.55,0,*51
1512961322.84,28814,2.94,71508.0,-7.03,-8.17,-8.25,0,*52
1512961324.06,28815,3.0,71520.0,-7.03,-8.11,-8.17,0,*54
1512961325.29,28816,3.0,71538.3,-7.03,-8.11,-8.17,0,*57
1512961326.48,28817,3.0,71536.5,-7.03,-8.17,-8.25,0,*51
1512961327.68,28818,3.0,71534.0,-7.03,-8.17,-8.29,0,*52
1512961328.88,28819,3.0,71530.8,-7.03,-8.25,-8.37,0,*5D
1512961330.1,28820,3.0,71444.5,-7.01,-8.33,-8.37,0,*52
1512961331.34,28821,2.94,71460.8,-7.05,-8.51,-8.63,0,*52
1512961332.56,28822,3.0,71496.3,-7.03,-8.29,-8.51,0,*59
1512961333.75,28823,3.0,71510.5,-7.03,-8.37,-8.55,0,*53
1512961334.97,28824,3.0,71506.0,-7.03,-8.51,-8.63,0,*51
1512961336.16,28825,3.0,71516.0,-7.03,-8.41,-8.75,0,*56
1512961337.39,28826,2.94,71558.0,-7.03,-8.51,-8.93,0,*5C
1512961338.62,28827,3.0,71560.8,-7.03,-8.63,-9.49,0,*5A
1512961339.86,28828,3.0,71588.8,-7.03,-8.81,-9.61,0,*53
1512961341.1,28829,3.0,71560.0,-7.01,-8.81,-9.97,0,*59
1512961342.34,28830,3.0,71510.8,-7.05,-8.93,-10.19,0,*68
1512961343.6,28831,3.0,71506.3,-7.01,-9.19,-11.07,0,*60
1512961344.79,28832,3.0,71500.0,-7.03,-9.89,-13.23,0,*6C
1512961346.05,28833,3.0,71504.8,-7.05,-11.81,-16.83,0,*55
1512961347.31,28834,3.0,71510.8,-7.05,-13.97,-18.65,0,*51
1512961348.57,28835,3.0,71520.5,-7.03,-15.57,-19.27,0,*5B
1512961349.8,28836,3.0,71526.3,-7.05,-16.55,-18.83,0,*50
1512961351.03,28837,3.0,71546.3,-7.05,-16.41,-17.73,0,*54
1512961352.29,28838,3.0,71548.0,-7.03,-16.13,-17.03,0,*5D
1512961353.53,28839,2.94,71548.0,-7.05,-16.41,-16.55,0,*5F
1512961354.74,28840,3.0,71550.0,-7.03,-15.53,-16.03,0,*54
1512961356.02,28841,3.0,71550.8,-7.05,-15.57,-16.69,0,*5B
1512961357.26,28842,3.0,71542.5,-7.05,-16.59,-18.07,0,*53
1512961358.53,28843,3.0,71536.8,-7.05,-17.03,-18.55,0,*5B
1512961359.79,28844,2.94,71530.5,-7.07,-17.11,-18.55,0,*5D
1512961360.99,28845,3.0,71518.0,-7.07,-16.79,-18.45,0,*52
1512961362.2,28846,3.0,71526.8,-7.07,-16.59,-18.83,0,*59
1512961363.42,28847,3.0,71534.3,-7.07,-16.93,-18.89,0,*54
1512961364.63,28848,3.0,71530.0,-7.07,-16.89,-18.69,0,*5E
1512961365.91,28849,3.0,71512.8,-7.09,-17.21,-18.55,0,*5D
1512961367.17,28850,3.0,71548.5,-7.07,-17.07,-18.01,0,*5E
1512961368.41,28851,3.0,71562.3,-7.07,-16.17,-17.35,0,*57
1512961369.62,28852,3.0,71548.8,-7.07,-15.63,-17.35,0,*54
1512961370.85,28853,3.0,71544.8,-7.07,-15.49,-17.41,0,*5E
1512961372.13,28854,2.94,71524.3,-7.09,-14.97,-17.41,0,*55
1512961373.37,28855,2.94,71512.8,-7.07,-14.19,-16.65,0,*5B
1512961374.67,28856,2.94,71504.8,-7.09,-14.47,-17.07,0,*58
1512961375.92,28857,3.0,71514.5,-7.07,-15.01,-17.63,0,*56
1512961377.15,28858,3.0,71544.3,-7.09,-14.33,-16.97,0,*5D
1512961378.37,28859,3.0,71562.0,-7.09,-14.33,-16.89,0,*53
1512961379.59,28860,2.94,71568.0,-7.07,-14.33,-15.75,0,*57
1512961380.84,28861,3.0,71560.8,-7.09,-14.01,-14.11,0,*5A
1512961382.05,28862,3.0,71556.5,-7.07,-12.89,-12.89,0,*56
1512961383.33,28863,3.0,71530.5,-7.09,-11.85,-11.77,0,*54
1512961384.56,28864,2.94,71550.5,-7.07,-10.75,-10.93,0,*58
1512961385.8,28865,2.94,71556.3,-7.09,-9.79,-10.31,0,*6B
1512961387.05,28866,3.0,71564.8,-7.07,-9.41,-9.83,0,*5C
1512961388.29,28867,2.94,71558.0,-7.09,-8.97,-9.61,0,*55
1512961389.52,28868,2.94,71562.3,-7.07,-8.89,-9.53,0,*5A
1512961390.73,28869,3.0,71558.3,-7.07,-8.89,-9.67,0,*5C
1512961391.98,28870,2.94,71542.3,-7.09,-8.89,-9.83,0,*50
1512961393.19,28871,2.94,71550.8,-7.07,-9.01,-9.93,0,*5F
1512961394.39,28872,3.0,71580.8,-7.07,-9.01,-9.97,0,*58
1512961395.62,28873,3.0,71586.0,-7.07,-9.11,-9.97,0,*58
1512961396.88,28874,2.94,71576.0,-7.05,-9.11,-10.15,0,*6F
1512961398.09,28875,3.0,71570.8,-7.07,-9.27,-10.09,0,*64
1512961399.32,28876,2.94,71566.0,-7.07,-9.49,-10.31,0,*64
1512961400.53,28877,2.94,71568.8,-7.07,-9.71,-10.45,0,*6D
1512961401.76,28878,3.0,71598.8,-7.07,-9.83,-10.35,0,*68
1512961402.95,28879,2.94,71598.8,-7.07,-9.93,-10.23,0,*6F
1512961404.15,28880,2.94,71588.8,-7.07,-9.93,-10.09,0,*61
1512961405.34,28881,3.0,71574.3,-7.07,-9.97,-9.97,0,*5B
1512961406.54,28882,3.0,71572.0,-7.07,-10.05,-10.09,0,*54
1512961407.75,28883,3.0,71566.0,-7.07,-10.31,-10.31,0,*59
1512961408.96,28884,3.0,71562.0,-7.07,-10.45,-10.45,0,*5E
1512961410.23,28885,2.94,71534.8,-7.07,-10.67,-10.75,0,*5C
1512961411.47,28886,2.94,71530.0,-7.07,-10.57,-10.67,0,*5F
1512961412.7,28887,2.94,71508.0,-7.05,-10.31,-10.45,0,*5C
1512961413.96,28888,3.0,71496.8,-7.09,-10.49,-10.75,0,*53
1512961415.22,28889,3.0,71516.3,-7.07,-10.79,-11.07,0,*5B
1512961416.47,28890,3.0,71530.5,-7.07,-11.33,-11.33,0,*5B
1512961417.76,28891,3.0,71522.5,-7.09,-11.85,-11.63,0,*5C
1512961419.0,28892,3.0,71544.0,-7.07,-12.75,-12.03,0,*58
1512961420.26,28893,3.0,71554.5,-7.09,-14.11,-12.71,0,*56
1512961421.54,28894,3.0,71564.3,-7.09,-15.01,-12.83,0,*5C
1512961422.75,28895,3.0,71572.0,-7.07,-15.29,-12.89,0,*53
1512961424.0,28896,3.0,71574.0,-7.09,-15.43,-13.11,0,*52
1512961425.21,28897,2.94,71554.0,-7.07,-15.11,-12.89,0,*5A
1512961426.47,28898,3.0,71528.8,-7.09,-14.33,-12.75,0,*59
1512961427.7,28899,2.94,71524.5,-7.07,-13.55,-12.75,0,*51
1512961428.91,28900,3.0,71504.0,-7.07,-13.55,-13.11,0,*53
1512961430.15,28901,2.94,71496.5,-7.07,-14.15,-13.83,0,*5A
1512961431.42,28902,3.0,71506.3,-7.09,-14.97,-14.55,0,*51
1512961432.68,28903,2.94,71504.3,-7.09,-15.63,-15.21,0,*58
1512961433.91,28904,2.94,71520.5,-7.09,-16.03,-15.99,0,*59
1512961435.12,28905,2.94,71520.0,-7.07,-16.97,-16.97,0,*56
1512961436.37,28906,2.94,71548.8,-7.09,-17.97,-18.17,0,*5C
1512961437.61,28907,2.94,71554.3,-7.09,-19.17,-19.17,0,*5A
1512961438.82,28908,2.94,71562.8,-7.07,-19.99,-19.95,0,*57
1512961440.07,28909,2.94,71594.0,-7.09,-20.59,-20.39,0,*52
1512961441.32,28910,3.0,71594.0,-7.13,-20.63,-20.35,0,*54
1512961442.6,28911,3.0,71576.0,-7.13,-20.79,-20.49,0,*55
1512961443.84,28912,2.94,71554.5,-7.11,-20.79,-20.43,0,*5E
1512961445.05,28913,2.94,71582.8,-7.11,-20.59,-20.29,0,*51
1512961446.28,28914,3.0,71592.0,-7.11,-20.73,-20.49,0,*58
1512961447.51,28915,3.0,71590.5,-7.13,-20.73,-20.73,0,*52
1512961448.75,28916,3.0,71586.0,-7.11,-20.79,-20.63,0,*58
1512961450.02,28917,2.94,71590.8,-7.13,-20.79,-20.79,0,*50
1512961451.27,28918,3.0,71610.5,-7.13,-20.89,-20.79,0,*50
1512961452.5,28919,3.0,71608.5,-7.13,-20.73,-20.43,0,*5D
1512961453.75,28920,2.94,71598.3,-7.13,-20.15,-19.99,0,*5A
1512961454.96,28921,2.94,71596.5,-7.15,-19.75,-19.47,0,*52
1512961456.24,28922,3.0,71582.5,-7.17,-19.41,-18.93,0,*5C
1512961457.5,28923,3.0,71602.5,-7.17,-18.99,-18.01,0,*52
1512961458.74,28924,2.94,71592.0,-7.15,-18.21,-16.17,0,*5D
1512961459.98,28925,3.0,71596.5,-7.17,-16.89,-14.65,0,*55
1512961461.21,28926,3.0,71584.5,-7.17,-15.25,-13.23,0,*56
1512961462.47,28927,3.0,71586.0,-7.15,-13.83,-13.37,0,*5A
1512961463.71,28928,3.0,71590.5,-7.15,-14.11,-14.55,0,*5A
1512961464.97,28929,3.0,71580.3,-7.17,-15.21,-15.29,0,*51
1512961466.25,28930,3.0,71580.3,-7.17,-16.31,-16.27,0,*56
1512961467.49,28931,3.0,71600.5,-7.15,-16.27,-15.95,0,*58
1512961468.73,28932,3.0,71588.3,-7.17,-15.53,-15.29,0,*5E
1512961470.03,28933,3.0,71598.3,-7.17,-13.83,-13.97,0,*57
1512961471.29,28934,3.0,71602.8,-7.17,-12.25,-12.83,0,*59
1512961472.52,28935,2.94,71606.8,-7.15,-11.11,-11.29,0,*5D
1512961473.77,28936,3.0,71592.0,-7.17,-10.15,-10.15,0,*57
1512961475.05,28937,2.94,71578.3,-7.17,-9.37,-9.37,0,*56
1512961476.25,28938,2.94,71570.8,-7.15,-8.97,-9.05,0,*51
1512961477.51,28939,2.94,71562.5,-7.17,-8.81,-8.81,0,*58
1512961478.75,28940,2.94,71554.3,-7.15,-8.81,-8.81,0,*54
1512961479.97,28941,2.94,71558.3,-7.17,-8.67,-8.89,0,*57
1512961481.19,28942,2.94,71556.0,-7.15,-8.67,-8.81,0,*5E
1512961482.39,28943,2.94,71544.0,-7.15,-8.67,-8.89,0,*57
1512961483.61,28944,2.94,71546.0,-7.17,-8.67,-8.97,0,*5D
1512961484.8,28945,3.0,71546.0,-7.15,-8.67,-8.97,0,*5E
1512961486.01,28946,2.94,71546.8,-7.15,-8.63,-8.89,0,*56
1512961487.22,28947,2.94,71544.3,-7.15,-8.67,-8.81,0,*5B
1512961488.43,28948,2.94,71542.5,-7.15,-8.67,-8.81,0,*54
1512961489.63,28949,2.94,71540.5,-7.15,-8.67,-8.89,0,*5D
1512961490.83,28950,2.94,71560.3,-7.15,-8.67,-8.97,0,*5A
1512961492.04,28951,2.94,71538.3,-7.15,-8.67,-8.81,0,*5C
1512961493.24,28952,2.94,71530.3,-7.15,-8.67,-8.93,0,*5C
1512961494.43,28953,2.94,71538.0,-7.15,-8.75,-9.05,0,*50
1512961495.68,28954,2.94,71536.8,-7.13,-8.71,-9.15,0,*54
1512961496.93,28955,2.94,71534.8,-7.13,-9.01,-9.57,0,*55
1512961498.18,28956,2.94,71526.8,-7.13,-9.15,-9.89,0,*50
1512961499.4,28957,3.0,71570.8,-7.13,-9.31,-10.49,0,*63
1512961500.6,28958,2.94,71490.3,-7.11,-9.67,-11.23,0,*60
1512961501.85,28959,2.94,71520.3,-7.13,-10.23,-12.07,0,*5E
1512961503.1,28960,2.94,71530.5,-7.13,-10.49,-13.37,0,*5A
1512961504.34,28961,2.94,71512.5,-7.13,-10.97,-15.07,0,*5D
1512961505.61,28962,2.94,71538.8,-7.13,-11.55,-16.27,0,*50
1512961506.9,28963,3.0,71548.0,-7.13,-13.01,-18.31,0,*5B
1512961508.1,28964,3.0,71558.8,-7.11,-15.25,-19.07,0,*5A
1512961509.37,28965,2.94,71546.5,-7.13,-16.51,-18.93,0,*55
1512961510.6,28966,2.94,71546.8,-7.11,-17.03,-18.45,0,*59
1512961511.89,28967,2.94,71536.5,-7.13,-16.65,-17.45,0,*54
1512961513.14,28968,2.94,71580.3,-7.11,-15.81,-16.65,0,*53
1512961514.42,28969,2.94,71558.0,-7.13,-14.51,-15.01,0,*5D
1512961515.65,28970,3.0,71542.3,-7.13,-12.47,-12.93,0,*58
1512961516.91,28971,2.94,71532.3,-7.11,-10.67,-11.37,0,*56
1512961518.16,28972,2.94,71532.8,-7.13,-9.57,-10.01,0,*68
1512961519.38,28973,2.94,71542.3,-7.11,-8.89,-9.15,0,*54
1512961520.6,28974,2.94,71576.8,-7.13,-8.37,-8.75,0,*53
1512961521.82,28975,2.94,71582.8,-7.11,-8.25,-8.51,0,*55
1512961523.03,28976,2.94,71562.8,-7.11,-7.99,-8.25,0,*5D
1512961524.22,28977,2.94,71500.8,-7.11,-8.21,-8.63,0,*52
1512961525.43,28978,3.0,71496.8,-7.09,-8.29,-8.67,0,*58
1512961526.63,28979,2.94,71484.3,-7.11,-8.37,-8.89,0,*5F
1512961527.83,28980,2.94,71522.3,-7.11,-8.45,-9.01,0,*5D
1512961529.02,28981,2.94,71516.8,-7.11,-8.59,-8.93,0,*5B
1512961530.22,28982,2.94,71498.0,-7.11,-8.71,-9.19,0,*51
1512961531.47,28983,2.94,71518.3,-7.09,-8.71,-9.15,0,*55
1512961532.72,28984,3.0,71522.0,-7.09,-8.89,-9.61,0,*56
1512961533.98,28985,2.94,71514.3,-7.09,-9.15,-9.67,0,*55
1512961535.2,28986,2.94,71506.5,-7.09,-9.23,-9.67,0,*53
1512961536.43,28987,2.94,71518.3,-7.07,-9.23,-9.37,0,*59
1512961537.68,28988,2.94,71540.3,-7.09,-9.11,-8.89,0,*5D
1512961538.9,28989,2.94,71538.8,-7.09,-8.97,-8.71,0,*54
1512961540.12,28990,2.94,71524.8,-7.09,-8.89,-8.71,0,*53
1512961541.34,28991,2.94,71530.0,-7.09,-8.85,-8.67,0,*59
1512961542.56,28992,2.94,71552.3,-7.09,-8.71,-8.59,0,*5C
1512961543.77,28993,2.94,71576.0,-7.09,-8.55,-8.55,0,*57
1512961544.99,28994,3.0,71582.8,-7.09,-8.45,-8.41,0,*54
1512961546.22,28995,2.94,71580.8,-7.09,-8.41,-8.45,0,*55
1512961547.4,28996,2.94,71582.0,-7.07,-8.33,-8.55,0,*5C
1512961548.61,28997,2.94,71582.3,-7.09,-8.41,-8.67,0,*57
1512961549.81,28998,2.94,71590.3,-7.07,-8.55,-8.71,0,*54
1512961551.03,28999,2.94,71592.5,-7.09,-8.45,-8.71,0,*5A
1512961552.23,29000,2.94,71594.5,-7.07,-8.55,-8.85,0,*56
1512961553.45,29001,2.94,71592.3,-7.09,-8.59,-9.01,0,*58
1512961554.7,29002,2.94,71594.5,-7.09,-8.85,-9.41,0,*5E
1512961555.93,29003,2.94,71598.8,-7.07,-9.11,-9.71,0,*5E
1512961557.18,29004,2.94,71596.5,-7.09,-9.53,-10.09,0,*66
1512961558.42,29005,2.94,71604.5,-7.09,-9.71,-10.31,0,*6C
1512961559.65,29006,2.94,71592.5,-7.09,-10.19,-10.93,0,*51
1512961560.94,29007,2.94,71584.5,-7.09,-10.63,-11.85,0,*5B
1512961562.17,29008,2.94,71594.5,-7.09,-11.41,-12.43,0,*5C
1512961563.45,29009,2.94,71580.0,-7.09,-11.73,-12.57,0,*59
1512961564.73,29010,2.94,71594.3,-7.09,-11.89,-12.75,0,*54
1512961565.99,29011,2.94,71580.3,-7.09,-11.89,-13.15,0,*52
1512961567.22,29012,2.94,71588.8,-7.09,-12.03,-14.29,0,*58
1512961568.49,29013,2.94,71600.0,-7.09,-12.61,-15.01,0,*56
1512961569.72,29014,2.94,71620.5,-7.11,-13.01,-15.67,0,*5F
1512961570.98,29015,2.94,71618.0,-7.11,-13.01,-16.13,0,*5E
1512961572.24,29016,2.94,71582.8,-7.11,-13.61,-17.41,0,*5D
1512961573.5,29017,2.94,71564.3,-7.11,-13.79,-18.35,0,*59
1512961574.71,29018,2.94,71576.8,-7.11,-14.23,-18.73,0,*5C
1512961575.94,29019,2.94,71588.5,-7.11,-14.37,-18.93,0,*56
1512961577.15,29020,2.94,71590.0,-7.11,-14.61,-19.13,0,*56
1512961578.4,29021,3.0,71600.0,-7.11,-14.79,-19.23,0,*5D
1512961579.68,29022,2.94,71586.5,-7.09,-14.83,-19.23,0,*52
1512961580.92,29023,2.94,71592.0,-7.09,-15.01,-19.47,0,*5A
1512961582.18,29024,2.94,71612.8,-7.09,-15.49,-19.65,0,*51
1512961583.41,29025,2.94,71604.5,-7.09,-16.03,-19.75,0,*5C
1512961584.69,29026,2.94,71598.3,-7.09,-16.17,-19.65,0,*5B
1512961585.95,29027,2.94,71602.5,-7.09,-16.79,-19.81,0,*58
1512961587.21,29028,2.94,71612.8,-7.09,-17.97,-19.91,0,*57
1512961588.49,29029,2.94,71606.8,-7.09,-18.89,-19.81,0,*57
1512961589.75,29030,2.94,71602.0,-7.09,-19.61,-19.75,0,*53
1512961591.0,29031,2.94,71616.0,-7.09,-19.91,-19.31,0,*5D
1512961592.2,29032,2.94,71622.8,-7.11,-19.99,-18.99,0,*5C
1512961593.44,29033,2.94,71624.0,-7.13,-19.99,-18.07,0,*58
1512961594.69,29034,2.94,71602.0,-7.13,-19.65,-16.79,0,*5B
1512961595.91,29035,2.94,71596.3,-7.11,-18.99,-15.49,0,*5A
1512961597.14,29036,2.94,71612.3,-7.11,-17.03,-13.73,0,*5A
1512961598.36,29037,2.94,71608.3,-7.11,-14.89,-12.65,0,*5C
1512961599.61,29038,3.0,71614.5,-7.11,-13.33,-12.65,0,*55
1512961600.87,29039,2.94,71608.5,-7.11,-12.75,-12.65,0,*57
1512961602.11,29040,2.94,71602.5,-7.11,-13.29,-13.19,0,*5B
1512961603.34,29041,2.94,71610.8,-7.09,-13.47,-12.89,0,*53
1512961604.6,29042,2.94,71616.5,-7.09,-13.83,-12.97,0,*57
1512961605.83,29043,2.94,71606.0,-7.09,-13.47,-12.89,0,*51
1512961607.11,29044,2.94,71602.8,-7.09,-13.29,-13.29,0,*55
1512961608.36,29045,2.94,71608.5,-7.09,-13.55,-13.83,0,*5F
1512961609.62,29046,2.94,71608.0,-7.09,-13.73,-13.87,0,*5C
1512961610.87,29047,2.94,71614.0,-7.09,-14.01,-13.69,0,*5F
1512961612.1,29048,2.94,71598.5,-7.11,-13.93,-13.61,0,*5D
1512961613.36,29049,2.94,71592.8,-7.11,-13.79,-13.61,0,*58
1512961614.59,29050,2.94,71590.5,-7.11,-13.79,-13.51,0,*53
1512961615.84,29051,2.94,71594.5,-7.09,-13.61,-13.11,0,*56
1512961617.05,29052,2.94,71582.0,-7.11,-13.07,-13.15,0,*58
1512961618.33,29053,2.94,71582.3,-7.09,-13.01,-13.33,0,*52
1512961619.58,29054,2.94,71594.3,-7.09,-13.29,-13.55,0,*5F
1512961620.82,29055,2.94,71600.3,-7.11,-13.65,-13.33,0,*5F
1512961622.1,29056,2.94,71606.3,-7.09,-14.01,-12.83,0,*5A
1512961623.36,29057,2.94,71596.5,-7.11,-13.37,-11.51,0,*5C
1512961624.62,29058,2.94,71590.0,-7.13,-12.29,-10.41,0,*5F
1512961625.82,29059,2.94,71586.0,-7.11,-11.23,-9.89,0,*69
1512961627.08,29060,2.94,71600.5,-7.13,-10.35,-9.53,0,*60
1512961628.3,29061,2.94,71592.8,-7.11,-9.71,-9.41,0,*58
1512961629.52,29062,2.94,71594.8,-7.11,-9.41,-9.27,0,*58
1512961630.72,29063,2.94,71600.0,-7.11,-9.05,-9.01,0,*5D
1512961631.92,29064,2.94,71596.8,-7.11,-8.93,-8.93,0,*5E
1512961633.12,29065,2.94,71600.8,-7.11,-8.75,-8.89,0,*5C
1512961634.32,29066,2.94,71600.0,-7.11,-8.71,-8.75,0,*58
1512961635.52,29067,2.94,71594.8,-7.11,-8.63,-8.85,0,*55
1512961636.71,29068,2.94,71580.0,-7.11,-8.71,-8.75,0,*56
1512961637.9,29069,2.94,71582.5,-7.11,-8.63,-8.75,0,*54
1512961639.1,29070,2.94,71582.0,-7.11,-8.63,-8.75,0,*5C
1512961640.29,29071,2.94,71582.5,-7.11,-8.59,-8.71,0,*50
1512961641.48,29072,2.94,71574.8,-7.11,-8.45,-8.59,0,*54
1512961642.67,29073,2.94,71568.0,-7.11,-8.45,-8.59,0,*55
1512961643.91,29074,2.94,71546.5,-7.13,-8.51,-8.59,0,*55
1512961645.13,29075,2.94,71532.8,-7.11,-8.51,-8.63,0,*5F
1512961646.31,29076,2.94,71536.5,-7.11,-8.59,-8.63,0,*54
1512961647.53,29077,2.94,71552.3,-7.11,-8.51,-8.71,0,*5E
1512961648.75,29078,2.94,71566.3,-7.11,-8.51,-8.71,0,*51
1512961649.97,29079,2.94,71574.5,-7.11,-8.51,-8.71,0,*50
1512961651.17,29080,2.94,71568.3,-7.11,-8.45,-8.85,0,*58
1512961652.38,29081,2.94,71552.8,-7.11,-8.59,-9.15,0,*5C
1512961653.63,29082,2.94,71520.5,-7.13,-8.63,-9.53,0,*56
1512961654.85,29083,2.94,71488.0,-7.11,-8.85,-10.15,0,*67
1512961656.1,29084,2.94,71464.5,-7.13,-8.89,-10.71,0,*6C
1512961657.33,29085,2.94,71432.8,-7.11,-9.27,-11.51,0,*69
1512961658.55,29086,2.94,71468.5,-7.11,-9.67,-12.75,0,*6B
1512961659.79,29087,2.94,71490.8,-7.11,-11.07,-15.07,0,*57
1512961661.02,29088,2.94,71502.5,-7.11,-12.03,-15.89,0,*59
1512961662.27,29089,2.94,71510.0,-7.11,-12.65,-17.03,0,*58
1512961663.5,29090,2.94,71568.0,-7.11,-13.47,-17.41,0,*57
1512961664.73,29091,2.94,71532.3,-7.13,-14.33,-17.87,0,*5A
1512961665.96,29092,2.94,71564.8,-7.11,-15.95,-19.23,0,*56
1512961667.22,29093,2.94,71568.3,-7.13,-17.25,-20.05,0,*52
1512961668.5,29094,2.94,71558.8,-7.13,-17.97,-20.15,0,*5D
1512961669.74,29095,2.94,71556.0,-7.13,-18.17,-20.15,0,*5B
1512961670.95,29096,2.94,71552.3,-7.11,-18.45,-19.99,0,*53
1512961672.2,29097,2.94,71554.0,-7.13,-18.45,-19.85,0,*5D
1512961673.43,29098,2.94,71556.5,-7.11,-18.35,-19.51,0,*5E
1512961674.66,29099,2.94,71574.8,-7.13,-18.49,-19.51,0,*56
1512961675.89,29100,2.94,71584.5,-7.11,-18.79,-19.65,0,*51
1512961677.15,29101,2.94,71592.5,-7.13,-18.93,-19.13,0,*57
1512961678.38,29102,2.94,71602.0,-7.13,-18.45,-17.73,0,*57
1512961679.63,29103,2.94,71600.8,-7.13,-17.41,-16.93,0,*52
1512961680.89,29104,2.94,71586.3,-7.13,-17.17,-17.49,0,*50
1512961682.12,29105,2.94,71584.5,-7.13,-18.07,-17.87,0,*5D
1512961683.37,29106,2.94,71590.0,-7.13,-18.21,-17.25,0,*52
1512961684.62,29107,2.94,71584.3,-7.13,-17.55,-16.03,0,*5A
1512961685.9,29108,2.94,71578.3,-7.13,-16.51,-14.79,0,*5F
1512961687.13,29109,2.94,71574.8,-7.13,-15.63,-13.51,0,*51
1512961688.42,29110,2.94,71578.3,-7.13,-14.47,-11.93,0,*52
1512961689.68,29111,2.94,71560.8,-7.13,-12.79,-10.27,0,*56
1512961690.96,29112,2.94,71564.3,-7.13,-11.55,-9.45,0,*64
1512961692.21,29113,2.94,71566.8,-7.13,-10.67,-9.05,0,*61
1512961693.43,29114,2.94,71568.8,-7.13,-9.97,-8.89,0,*54
1512961694.64,29115,2.94,71568.3,-7.11,-9.45,-8.71,0,*5F
1512961695.87,29116,2.94,71530.0,-7.11,-9.01,-8.51,0,*5E
1512961697.06,29117,2.94,71526.3,-7.11,-8.75,-8.45,0,*58
1512961698.29,29118,2.94,71518.5,-7.11,-8.71,-8.51,0,*56
1512961699.48,29119,2.94,71506.3,-7.11,-8.63,-8.45,0,*51
1512961700.71,29120,2.94,71518.5,-7.11,-8.51,-8.37,0,*5F
1512961701.91,29121,2.94,71518.5,-7.11,-8.37,-8.37,0,*5E
1512961703.1,29122,2.94,71530.0,-7.11,-8.33,-8.37,0,*59
1512961704.32,29123,2.94,71508.5,-7.11,-8.45,-8.51,0,*59
1512961705.54,29124,2.94,71528.0,-7.11,-8.37,-8.51,0,*5B
1512961706.73,29125,2.94,71558.5,-7.11,-8.45,-8.59,0,*57
1512961707.93,29126,2.94,71564.0,-7.11,-8.37,-8.59,0,*51
1512961709.12,29127,2.94,71538.3,-7.11,-8.37,-8.71,0,*5A
1512961710.33,29128,2.94,71520.5,-7.09,-8.41,-8.59,0,*57
1512961711.55,29129,2.94,71554.8,-7.09,-8.41,-8.67,0,*5B